This demonstration page uses our WeatherBlox Daily Observations layout. Learn more.

Left ArrowRight Arrow

39.29038, -76.61219

Hourly Observations for April 25, 2022

Temp ( °F °C ) Dew Point ( °F °C ) Humidity (%) Winds ( mph kmh ) Pressure ( in mb ) Visibility ( mi km ) Precip ( " mm )
12:54 am 00:54 Clear 55 12.8 50 10 83 83 E 9 15 30.13 1020 10 16 0.00 0.00
1:54 am 01:54 Clear 55 12.8 50 10 83 83 E 8 13 30.13 1020 10 16 0.00 0.00
2:54 am 02:54 Partly Cloudy 54 12.2 51 10.6 90 90 ENE 9 15 30.13 1020 10 16 0.00 0.00
3:31 am 03:31 Mostly Cloudy 54 12.2 51 10.6 90 90 E 8 13 30.12 1020 10 16 0.00 0.00
3:54 am 03:54 Cloudy 53 11.7 51 10.6 93 93 ENE 9 15 30.11 1020 10 16 0.00 0.00
4:54 am 04:54 Cloudy 53 11.7 51 10.6 93 93 NE 10 17 30.13 1020 10 16 0.00 0.00
5:54 am 05:54 Cloudy 54 12.2 50 10 87 87 ENE 9 15 30.13 1020 10 16 0.00 0.00
6:54 am 06:54 Cloudy 53 11.7 49 9.4 86 86 NE 10 17 30.14 1021 10 16 0.00 0.00
7:54 am 07:54 Cloudy 54 12.2 47 8.3 77 77 NE 9 15 30.16 1021 7 11 0.00 0.00
8:54 am 08:54 Cloudy with Haze 55 12.8 48 8.9 77 77 ENE 6 9 30.16 1021 6 10 0.00 0.00
9:54 am 09:54 Cloudy with Haze 55 12.8 49 9.4 80 80 ENE 12 19 30.17 1022 6 10 0.00 0.00
10:16 am 10:16 Cloudy with Haze 55 12.8 49 9.4 80 80 ENE 12 19 30.16 1021 6 10 0.00 0.00
10:52 am 10:52 Cloudy 55 13 50 10 82 82 ENE 10 17 30.17 1022 7 11 0.00 0.00
10:54 am 10:54 Cloudy 56 13.3 50 10 81 81 ENE 9 15 30.17 1022 7 11 0.00 0.00
11:39 am 11:39 Cloudy 59 15 50 10 72 72 NE 13 20 30.17 1022 7 11 0.00 0.00
11:54 am 11:54 Cloudy 61 16.1 50 10 67 67 NE 12 19 30.16 1022 7 11 0.00 0.00
12:54 pm 12:54 Cloudy 62 16.7 52 11.1 70 70 ENE 12 19 30.16 1021 7 11 0.00 0.00
1:54 pm 13:54 Cloudy 63 17.2 53 11.7 70 70 ENE 12 19 30.15 1021 7 11 0.00 0.00
2:54 pm 14:54 Cloudy 66 18.9 54 12.2 65 65 ENE 9 15 30.15 1021 10 16 0.00 0.00
3:54 pm 15:54 Cloudy 68 20 54 12.2 61 61 ENE 13 20 30.13 1020 10 16 0.00 0.00
4:54 pm 16:54 Mostly Cloudy 69 20.6 53 11.7 57 57 ENE 15 24 30.13 1020 10 16 0.00 0.00
5:18 pm 17:18 Partly Cloudy 67 19.4 53 11.7 61 61 E 17 28 30.14 1021 10 16 0.00 0.00
5:54 pm 17:54 Mostly Sunny 66 18.9 52 11.1 61 61 E 16 26 30.13 1020 10 16 0.00 0.00
6:54 pm 18:54 Partly Cloudy 62 16.7 51 10.6 67 67 E 17 28 30.12 1020 10 16 0.00 0.00
7:18 pm 19:18 Mostly Cloudy 61 16.1 51 10.6 70 70 E 14 22 30.13 1020 10 16 0.00 0.00
7:54 pm 19:54 Mostly Cloudy 60 15.6 51 10.6 72 72 E 13 20 30.11 1020 10 16 0.00 0.00
8:54 pm 20:54 Cloudy 60 15.6 52 11.1 75 75 E 10 17 30.12 1020 10 16 0.00 0.00
9:54 pm 21:54 Cloudy 60 15.6 52 11.1 75 75 ENE 10 17 30.11 1020 10 16 0.00 0.00
10:54 pm 22:54 Cloudy 60 15.6 53 11.7 78 78 E 9 15 30.11 1020 10 16 0.00 0.00
11:54 pm 23:54 Cloudy 59 15 54 12.2 83 83 ENE 8 13 30.09 1019 10 16 0.00 0.00

Powered by AerisWeather